Dewpoint
49 49 49 49 49 49 49 49 49 50 50 51 52 52 52 54 58 57 51 53 51 47 43 34 24 21 23 25 28 27 22 20 20 19 19 18 17 20 22 20 21 25 26 28 34
48 48 48 48 48 47 48 49 49 49 49 49 52 53 52 53 54 52 53 52 50 47 27 26 19 21 22 25 29 25 20 19 22 18 17 19 18 20 19 17 21 25 30 33 34
50 50 49 49 48 48 47 47 48 49 49 49 49 53 53 53 49 46 49 52 47 44 31 26 21 22 20 24 28 26 23 24 23 20 18 17 17 17 17 17 20 21 29 31 32
50 51 51 51 50 50 49 48 47 48 49 49 49 51 54 52 15 39 46 45 44 37 29 22 20 19 18 19 27 24 25 25 24 22 19 19 21 20 20 18 23 23 29 31 31
45 46 46 47 46 48 50 49 48 46 47 49 49 52 49 47 45 43 45 42 43 34 26 21 22 21 20 25 24 24 23 24 24 23 20 21 20 20 22 23 24 27 29 30 30
42 42 45 47 47 46 46 48 50 49 48 46 49 52 47 37 40 45 39 38 37 31 21 21 25 26 25 25 25 25 23 22 22 22 22 21 21 21 21 22 22 24 27 30 30
41 41 42 43 45 45 45 45 46 47 49 47 45 51 46 39 41 37 32 29 27 31 19 21 28 26 28 27 28 26 23 24 24 24 23 21 23 22 24 26 26 26 25 26 30
42 42 44 44 45 45 46 45 45 46 47 48 46 51 42 42 44 42 22 20 20 19 28 29 29 29 29 29 28 26 26 24 26 27 27 24 20 29 29 30 29 29 29 25 26
42 43 44 44 44 44 45 45 45 44 44 45 46 46 38 41 40 39 22 22 18 24 29 30 31 30 30 28 27 27 24 24 25 29 30 27 27 25 27 30 29 28 26 28 29
41 43 44 44 44 46 46 45 45 45 43 43 47 42 42 37 37 36 31 23 21 27 26 27 29 29 30 28 24 24 24 25 26 29 29 28 26 25 24 21 22 23 24 28 30
42 43 43 43 44 46 46 44 35 35 40 38 39 40 35 38 28 34 34 25 26 26 26 27 28 27 28 29 29 27 27 26 24 27 26 27 26 25 25 23 22 25 29 30 29
42 42 43 43 44 45 42 36 40 43 35 36 35 32 37 39 28 22 30 24 24 24 27 28 26 28 28 29 29 28 27 24 24 22 21 21 22 23 23 24 28 30 29 30 28
42 43 44 44 43 42 37 37 44 44 33 30 29 29 27 33 34 22 25 23 22 25 26 27 27 28 28 26 24 25 24 23 23 17 16 15 18 20 25 25 29 29 30 30 26
42 44 44 44 38 39 37 40 41 43 27 23 28 29 29 25 24 29 22 21 27 24 27 28 28 22 23 22 22 21 19 22 18 18 18 18 15 18 24 21 22 25 25 23 20
44 44 44 44 41 38 38 42 43 38 11 20 24 24 26 26 30 29 24 25 26 27 25 22 22 21 20 19 21 19 15 15 15 15 17 18 17 17 24 23 20 22 24 23 15
44 44 45 42 42 40 41 41 39 23 10 21 26 25 28 28 22 25 26 27 27 28 25 24 22 20 17 14 17 15 17 18 20 19 17 17 18 17 23 23 20 23 24 22 21
43 44 44 43 36 41 41 35 24 16 19 24 29 32 28 29 29 25 27 29 27 26 26 29 27 18 17 14 13 20 21 18 17 17 15 20 19 19 24 22 20 19 17 17 18
43 44 39 41 43 42 37 27 15 17 26 30 29 30 24 28 32 26 21 24 28 32 28 24 24 22 18 19 17 16 21 18 12 15 20 19 18 16 22 18 16 14 16 17 19
43 40 36 42 43 41 31 19 19 27 27 21 24 24 28 30 31 27 22 24 32 34 26 24 16 13 14 14 17 16 18 20 18 19 16 16 16 17 15 11 14 16 18 12 21
38 38 35 42 43 40 27 20 25 28 27 24 22 24 20 27 28 29 29 32 30 32 32 27 18 16 13 14 13 18 18 17 16 12 13 14 15 15 12 11 18 19 9 13 21
35 30 35 42 42 34 23 25 28 29 27 24 24 23 26 26 28 29 27 28 29 30 29 27 22 19 17 16 14 15 16 20 19 22 15 15 13 17 11 13 15 12 13 16 23
35 25 33 39 26 31 24 27 31 25 28 28 28 28 27 28 28 27 26 28 33 30 26 28 24 21 19 21 18 16 18 20 18 18 20 18 16 23 15 12 11 13 15 21 24
31 30 35 34 22 24 27 26 31 29 27 27 27 27 30 28 23 29 27 33 32 30 27 26 23 18 19 21 20 16 15 22 22 22 20 16 15 20 18 15 19 16 21 23 26
32 25 26 31 30 27 25 25 26 29 28 30 29 28 27 26 29 25 26 31 33 32 31 26 23 19 16 19 22 17 20 22 21 19 16 18 17 10 11 15 17 22 23 25 26
31 25 27 22 22 25 28 28 26 26 29 30 25 29 28 24 25 25 28 29 31 31 29 25 19 20 21 22 21 21 21 20 20 18 18 17 20 20 22 24 21 20 25 25 25
30 27 29 26 26 26 28 23 26 26 29 27 27 29 29 27 27 26 26 25 24 26 27 26 20 20 15 19 20 19 20 21 21 20 20 20 19 22 18 16 22 24 24 24 24
33 33 31 24 23 24 25 27 25 28 32 31 30 30 27 29 29 30 30 29 26 22 22 21 21 20 14 19 17 14 18 19 20 22 21 20 21 21 11 14 20 23 24 24 24
Wind_Speed
20 21 22 23 23 24 24 24 23 22 22 22 22 23 21 20 22 11 13 13 13 14 9 3 5 7 6 3 2 2 4 9 5 4 3 3 1 3 2 6 5 4 4 6 23
21 22 22 22 23 23 25 25 24 23 21 23 22 22 22 21 19 17 17 11 13 16 9 10 8 9 4 5 6 6 7 11 5 1 2 3 4 3 3 3 4 9 11 20 22
22 22 22 22 23 23 23 25 24 25 24 23 24 23 22 21 9 7 1 19 15 11 7 5 9 10 10 5 8 7 7 8 1 3 5 1 3 2 5 3 4 6 20 22 24
26 27 27 25 24 24 23 25 26 25 24 23 23 23 18 7 8 5 12 16 15 10 3 3 4 6 8 13 11 8 10 14 11 1 2 2 4 4 5 9 8 7 23 18 20
26 26 26 28 28 29 26 25 26 27 26 23 21 23 7 8 13 9 14 13 11 10 9 11 11 8 10 7 13 16 14 13 11 4 5 3 9 8 9 10 4 13 24 24 21
27 27 28 27 27 29 29 30 29 28 29 26 23 22 3 18 11 18 16 11 11 11 10 10 7 8 6 10 7 4 2 4 5 7 7 9 10 6 7 16 18 12 20 23 23
26 27 28 30 29 30 32 32 32 31 31 28 24 18 12 29 2 10 17 12 11 12 10 7 6 4 3 2 6 5 9 11 12 14 11 7 11 15 20 9 10 11 15 17 21
27 27 28 29 29 32 33 33 33 32 34 27 24 15 13 11 25 17 12 10 7 6 6 8 10 3 2 2 4 3 2 6 8 13 9 11 13 10 14 20 13 10 8 14 12
27 28 29 30 29 32 35 35 37 38 34 25 15 6 12 6 17 18 13 12 9 6 6 7 7 4 3 4 3 5 8 12 10 6 9 13 6 1 6 12 11 8 8 13 13
27 28 30 30 31 33 35 35 38 33 13 9 15 8 11 13 5 10 12 14 11 12 6 3 4 6 5 9 15 10 12 5 10 7 11 14 13 9 5 8 12 14 11 9 14
29 28 29 31 31 35 30 10 11 6 8 9 14 13 17 8 4 10 14 13 13 11 9 8 8 17 22 22 13 10 4 7 8 5 6 15 16 19 16 13 14 4 9 12 16
29 29 30 30 31 33 13 12 11 12 17 21 25 27 32 22 7 5 17 14 12 12 11 6 21 18 18 17 19 19 13 5 7 4 2 8 18 17 18 7 11 13 11 12 11
30 29 29 29 32 8 21 8 11 12 9 17 18 14 22 14 22 15 20 14 14 14 16 13 7 22 20 12 10 9 10 5 8 3 4 5 12 7 5 12 12 9 9 7 11
29 29 29 29 12 14 15 18 18 6 6 9 6 5 8 15 20 17 21 19 7 19 17 14 19 7 9 9 7 9 2 7 5 1 6 2 8 6 6 8 8 9 9 9 8
29 30 31 24 14 6 15 16 14 3 6 5 1 5 4 12 1 22 23 19 14 10 11 8 9 16 11 6 9 4 8 7 4 3 2 3 4 6 10 7 10 9 10 8 6
30 32 32 9 5 9 13 12 2 2 6 6 5 6 1 12 4 4 9 7 3 4 13 5 3 5 4 9 10 13 7 7 4 2 6 13 14 4 7 6 13 10 10 8 4
32 33 22 10 8 10 7 4 1 2 10 11 8 14 10 10 1 5 8 8 10 6 10 5 3 3 7 10 4 6 8 2 2 3 9 4 8 9 3 6 18 22 12 5 2
35 27 12 3 9 2 4 4 1 5 4 4 5 9 5 7 4 4 14 11 6 6 6 11 7 8 5 4 7 10 8 7 6 5 1 2 7 4 5 13 17 12 8 3 3
32 7 8 8 11 1 4 2 3 6 7 11 10 6 2 3 1 7 7 12 1 7 5 7 3 3 8 3 5 5 5 4 2 2 2 6 1 1 7 10 9 7 2 2 4
15 8 5 7 8 1 2 3 4 11 14 7 5 5 7 5 6 7 10 3 6 4 6 2 7 1 2 3 4 3 7 4 2 4 5 5 6 5 12 14 9 4 3 5 5
8 9 3 10 0 2 3 5 6 11 10 6 4 4 4 7 15 4 5 7 6 2 7 5 4 1 3 4 9 4 4 3 4 4 4 2 2 4 14 16 13 3 4 6 8
8 8 7 8 7 3 7 14 10 8 6 4 6 7 4 7 8 6 6 6 10 2 4 5 4 4 5 1 2 3 8 7 5 5 3 2 7 1 13 12 6 3 4 5 5
11 5 5 5 9 10 10 10 5 9 7 5 5 3 2 2 4 6 7 7 11 7 3 2 3 4 1 2 2 3 4 4 8 3 5 5 4 5 5 4 7 5 3 4 6
5 7 6 6 3 6 13 6 12 10 2 8 4 6 5 5 3 4 4 4 5 5 10 4 3 3 6 2 1 3 4 7 8 5 6 14 5 5 6 9 9 4 2 5 6
2 3 2 9 12 18 14 4 17 11 9 10 6 13 3 4 4 4 4 4 4 5 4 4 1 5 7 10 8 9 9 8 14 12 10 5 4 6 8 10 4 2 1 4 5
3 4 4 10 11 12 5 7 14 14 3 7 7 9 8 6 4 2 6 3 2 2 3 4 0 3 6 3 6 11 14 15 18 17 16 18 27 10 4 7 5 3 2 4 6
3 2 2 7 7 10 6 11 18 20 1 2 8 2 5 5 9 7 8 6 7 6 4 3 1 2 4 4 6 10 8 12 11 5 12 21 12 4 4 5 4 1 3 5 8
Wind_Direction
358 356 355 352 349 346 345 342 342 341 339 334 331 326 324 315 316 289 258 228 217 182 164 150 199 233 266 240 180 108 184 222 239 261 321 1 71 37 118 94 64 52 125 179 150
354 351 350 348 343 342 337 335 335 336 336 332 329 326 324 316 309 269 244 235 173 168 163 178 204 208 215 211 187 188 198 209 226 326 118 43 79 139 100 116 118 91 103 127 142
347 344 342 342 339 336 332 328 329 330 330 330 327 326 322 322 301 247 124 182 170 174 169 175 217 195 221 219 200 194 221 236 211 95 83 19 9 11 120 228 151 177 158 153 155
352 351 344 337 334 329 329 326 322 321 322 323 324 319 320 296 281 187 163 158 163 166 158 214 229 189 212 224 211 236 234 246 281 189 182 176 324 293 229 212 140 149 168 160 168
344 340 336 332 329 329 323 321 320 318 315 317 319 310 335 265 246 193 171 168 158 155 187 205 203 205 225 225 234 227 233 240 256 231 197 185 243 250 266 255 284 143 163 174 180
346 341 344 340 338 335 328 323 315 313 311 310 311 305 224 263 257 166 167 170 186 178 194 212 211 216 250 239 230 318 208 282 286 279 267 227 245 226 245 245 251 168 176 181 185
346 344 344 337 334 332 324 316 312 310 304 301 299 289 242 243 235 188 175 191 201 192 200 225 132 146 4 296 334 347 292 309 286 264 245 208 257 235 243 220 204 192 175 187 194
344 343 340 339 336 330 321 314 307 298 292 294 292 266 249 250 234 245 193 198 203 184 120 111 100 113 155 14 355 309 300 273 269 236 223 167 255 252 303 195 198 189 197 186 199
342 344 342 338 332 328 325 316 301 289 286 284 277 196 260 240 227 216 177 179 179 145 113 109 98 165 150 177 275 225 242 230 279 226 152 182 239 17 95 147 177 199 207 171 138
344 343 340 336 332 325 325 317 300 297 283 236 235 210 260 245 186 185 176 171 164 124 105 123 146 174 176 170 217 212 214 251 247 218 165 196 235 220 221 176 195 200 163 148 135
344 339 337 335 329 324 329 329 357 345 5 293 296 246 318 209 95 173 183 177 151 150 166 193 182 200 209 211 217 217 251 250 275 248 171 212 227 248 252 224 221 175 139 122 115
341 338 336 333 330 323 337 340 356 320 301 274 262 257 268 274 293 214 170 180 175 184 190 173 220 216 220 223 229 238 246 239 306 160 201 240 246 249 257 241 174 149 136 142 130
338 333 331 333 327 334 339 320 341 355 285 290 247 239 227 234 241 207 178 191 191 196 205 212 207 221 219 237 194 200 208 223 238 182 241 276 291 263 51 113 111 105 138 138 149
337 332 330 333 327 333 303 339 331 348 302 281 239 251 200 210 256 206 180 183 200 206 214 241 238 221 166 197 166 215 147 209 177 282 245 49 283 290 187 144 130 125 129 137 132
331 328 329 330 296 296 328 335 317 318 307 311 337 299 326 180 170 190 177 193 198 191 192 232 179 184 185 194 199 178 110 118 109 141 335 236 238 265 147 192 174 153 139 145 153
328 328 330 322 285 272 319 317 6 39 258 314 2 323 293 171 23 13 153 31 22 238 223 242 63 118 119 70 140 140 103 69 64 101 254 216 203 260 193 199 163 160 150 156 173
327 328 325 304 316 316 339 4 47 201 319 345 351 334 299 165 345 132 145 179 157 172 210 183 235 63 131 102 62 112 117 196 220 228 237 314 194 253 228 154 163 158 153 153 168
326 324 313 39 339 12 22 39 295 276 4 310 310 332 321 12 165 242 161 174 192 105 162 174 193 196 180 163 185 172 169 179 203 200 222 352 231 267 97 101 119 128 127 102 347
325 308 326 342 346 342 32 5 248 348 294 331 334 360 202 294 308 170 200 181 87 163 169 136 121 54 68 47 130 178 196 159 96 232 207 215 174 80 128 127 135 135 77 320 311
319 312 307 342 343 340 10 276 289 338 331 343 358 30 331 315 250 186 167 142 125 110 259 110 113 42 40 43 46 159 160 147 108 209 236 262 217 224 183 176 174 194 282 294 300
325 331 288 328 106 60 317 274 302 292 345 335 329 298 297 350 300 111 46 56 56 66 75 93 94 108 108 212 184 151 171 93 132 182 209 281 239 225 195 172 171 183 280 298 320
339 320 324 5 20 358 329 309 284 304 356 339 348 0 343 340 338 42 69 69 10 22 74 47 88 156 204 316 348 203 199 167 182 208 215 130 279 331 151 159 169 211 274 285 301
324 279 311 33 17 348 325 307 300 336 327 340 339 7 323 352 16 38 65 35 24 34 95 82 108 150 234 353 2 213 206 157 115 118 199 193 244 164 181 242 242 256 275 314 325
317 323 321 25 356 334 331 327 335 323 26 349 312 338 355 358 40 93 90 43 27 37 57 82 100 189 193 143 152 211 241 190 173 190 220 226 234 195 214 242 235 236 313 327 332
315 305 352 317 329 320 311 343 322 355 355 2 5 8 22 4 29 103 94 116 50 12 47 77 151 192 249 258 254 255 245 222 210 212 213 214 269 210 267 274 219 189 324 317 341
316 343 342 291 297 316 345 337 344 331 297 333 8 356 58 49 64 133 148 159 159 75 63 39 214 347 299 339 203 247 253 242 243 243 256 270 280 292 142 124 144 164 317 330 330
305 290 296 289 309 331 357 329 323 323 263 6 334 330 71 54 26 70 75 73 141 135 118 137 117 38 277 10 323 284 256 243 238 215 227 250 262 217 176 173 160 201 306 313 315